STARLINK-34805, 65071

Orbit data source: Space-Track

STARLINK-34805, 65071 is a payload satellite owned by SpaceX/Seattle (US) in SSO that was launched on Thu, 31 Jul 2025 UTC via an FALCON 9 launch vehicle from the Air Force Western Test Range (AFWTR). Payload-class satellites include a variety of spacecraft equipped with specific instruments for various scientific and technological missions. These include communications satellites like Starlink; space stations such as the ISS; scientific satellites like the Hubble; Earth observation satellites from companies like Planet Labs, Umbra, and HawkEye 360; GPS; miniature CubeSats for education and research; and military/defense satellites.

Loading next visibility...
Identifier
65071, 2025-165R
Orbit
SSO
Country
Flag of USUS
Related business
Manufacturer
SpaceX/Seattle
Mission
Operational Commercial Communications
Bus & Motor
STARLINK V2MO, Unknown motor
Mass
575 kg wet, ~530 kg dry
Launch date (UTC)
2025-07-31 (4 months ago)
Launch vehicle
FALCON 9
Launch site
Air Force Western Test Range (AFWTR)
Object type
Payload
Rocket body
Debris
Shape & HBR
Box + 2 Pan, 17.7 m
Radar Cross Section
36.964 m², Large (>1 m²)

Expand to show TLE details & history
Last TLE update: 12 hours ago

TLE from 12 hours ago
0 STARLINK-34805
1 65071U 25165R   25342.48151815  .00012490  00000-0  86776-3 0  9990
2 65071  97.6051  57.2838 0001695 109.7145 250.4265 15.05673099 21068
Epoch: 2025-12-08T11:33Z
TLE epoch observation values (Epoch: 2025-12-08T11:33:23.168Z)
Latitude
0.00002°
Longitude
166.45733°
Altitude
552.899 km
Speed
7.585 km/s
True Right ascension
03h 49m 08s
True Declination
0° 00' 00"
Sunlit
Object was in full shadow at epoch
Visualization orbit readout
Latitude
Unknown
Longitude
Unknown
Altitude
Unknown
Speed
Unknown
Apparent Right ascension
Unknown
Apparent Declination
Unknown
Sunlit
N/A
Visualization observer readout
Local Sidereal Time
21:53:11
Azimuth
Unknown
Elevation
Unknown
Doppler factor
Unknown
Orbital elements
Apogee altitude
547.608 km
Perigee altitude
545.26 km
Semi-major axis
6,924.571 km
Eccentricity
0.00017
Inclination
97.6051°
RAAN
57.2838°
Arg. of periapsis
109.7145°
True anomaly
250.4082°
Mean anomaly
250.4265°
Eccentric anomaly
250.41735°
Mean motion
3.76664 °/min
Orbital period
95.58 mins
BSTAR
0.00086776
Loading maneuver chart data...
Computing Atmospheric mass density...
Loading historical data...
Loading historical data...
Loading historical data...
Loading historical data...
Loading historical data...
Loading historical data...
Loading historical data...

Documentation

Showing up to 5 results
|